World > North America > United States > New York   City of New York, NY

New York, New York Regional Weather

Lat: 40.71N, Lon: 74.01W
Wx Zone: NYZ072
Feedback

New York, NY Regional Weather

Expires:201911130000;;179665
ASUS41 KOKX 122305
RWROKX

Regional Weather Roundup
National Weather Service New York NY
600 PM EST TUE NOV 12 2019

Note: "FAIR" indicates few or no clouds below 12,000 feet with no
significant weather and/or obstructions to visibility.


NYZ071-072-176-178-NJZ106-104-130000-
New York City Metro Area
  
CITY           SKY/WX    TMP DP  RH WIND       PRES   REMARKS
Central Park   FAIR      32  15  49 NW10G16   30.05R WCI  24          
Bronx Lehman C   N/A     32  16  51 NW14        N/A  WCI  22          
LaGuardia Arpt MOCLDY    34  17  50 NW18G26   30.03R WCI  23          
Queens College   N/A     32  16  51 NW21G36     N/A  WCI  20          
Kennedy Intl   MOCLDY    33  16  49 NW23G33   30.03R WCI  21          
Breezy Point     N/A     34 N/A N/A NW20G26     N/A  WCI  22          
Brooklyn Coll    N/A     32  16  51 NW13G25     N/A  WCI  22          
Staten Island    N/A     32  16  51 NW10        N/A  WCI  24          
Newark/Liberty FAIR      32  15  49 NW10G24   30.05R WCI  24          
Teterboro      FAIR      31  16  54 NW10      30.04R WCI  22          
$$
 

SKY/WX - Weather  TMP - Temperature  DP - Dew Point  RH - Relative Humidity
WIND - Wind Direction/Speed PRES - Barometric Pressure VSB - Visibility
WCI - Wind Chill Index E13G22 Wind - East Wind 13 mph/Gusts of 22 mph